Flag for Switzerland Weather past 2 weeks in Mendrisio, Ticino, Switzerland

Now
75 °F

Mild.


Feels Like: 77 °F
Forecast: 46 / 66 °F
Wind: 8 mph from Northeast

Location: Stabio

Current Time: Sep 1, 2014 at 4:22:46 PM

Latest Report: Sep 1, 2014 at 3:00 PM


Visibility: N/A

Pressure: 29.80 "Hg

Humidity: 26%

Dew point: 38 °F

Location of MendrisioLocation

Historic Weather in Mendrisio — Graph

°F

Mendrisio temperature yesterday

Maximum temperature yesterday: 74 °F (at 5:00 PM)
Minimum temperature yesterday: 64 °F (at 7:00 AM)
Average temperature yesterday: 68 °F

Past Weeks' High & Low Weather Summary

 TemperatureHumidityPressure
High82 °F (Aug 27, 4:00 PM)100% (Aug 20, 7:00 AM)30.11 "Hg (Aug 20, 7:00 AM)
Low51 °F (Aug 21, 6:00 AM)25% (Sep 1, 2:00 PM)29.72 "Hg (Sep 1, 12:00 AM)
Average65 °F83%29.94 "Hg
* Reported Aug 17 3:00 PM — Sep 1 3:00 PM, Mendrisio, Weather by CustomWeather, © 2014

Note: Actual official high and low records may vary slightly from our data, if they occured in-between our weather recording intervals... More about our weather records

Advertising

Mendrisio weather history for previous 24 hours

 ConditionsComfort  
Time TempWeatherWind HumidityBarometerVisibility
3:00 PM
Sep 1
75 °FMild.8 mph26%29.80 "HgN/A
2:00 PM75 °FMild.10 mph25%29.79 "HgN/A
1:00 PM74 °FMild.9 mph28%29.79 "HgN/A
12:00 PM74 °FMild.9 mph31%29.78 "HgN/A
10:00 AM69 °FMild.9 mph33%29.80 "HgN/A
9:00 AM69 °FMild.7 mph33%29.79 "HgN/A
8:00 AM66 °FMild.12 mph37%29.79 "HgN/A
7:00 AM65 °FMild.8 mph35%29.78 "HgN/A
6:00 AM65 °FMild.10 mph37%29.78 "HgN/A
5:00 AM66 °FMild.10 mph34%29.77 "HgN/A
4:00 AM67 °FMild.7 mph33%29.77 "HgN/A
3:00 AM68 °FMild.10 mph31%29.77 "HgN/A
2:00 AM67 °FMild.9 mph34%29.75 "HgN/A
1:00 AM68 °FMild.7 mph35%29.73 "HgN/A
12:00 AM68 °FMild.7 mph38%29.72 "HgN/A
10:00 PM
Aug 31
65 °FMild.6 mph69%29.77 "HgN/A
9:00 PM66 °FMild.1 mph90%29.77 "HgN/A
8:00 PM67 °FMild.1 mph92%29.76 "HgN/A
7:00 PM70 °FMild.1 mph84%29.78 "HgN/A
6:00 PM73 °FMild.1 mph73%29.80 "HgN/A
5:00 PM74 °FMild.1 mph60%29.82 "HgN/A
4:00 PM72 °FMild.No wind64%29.85 "HgN/A
Weather by CustomWeather, © 2014

See weather overviewHow to use our weather pages